Location: Anuling
(14.1239°N, 120.8922°E)
Time: 01:02:28
(UTC+00:00)

GPS 2-17 Rocket1 - Pass Details

Date: 13 April 2026
Orbit: 544 x 613 km, 20.3° (Epoch: 19 May)

Event Time Altitude Azimuth Distance (km) Brightness Sun altitude
Rises 10:44:46 0° 286° (WNW) 2,857 8.9 -9.2°
Reaches altitude 10° 10:47:15 10° 294° (WNW) 1,954 7.1 -9.8°
Maximum altitude 10:51:31 37° 2° (N) 938 4.1 -10.8°
Enters shadow 10:55:28 12° 69° (ENE) 1,842 5.0 -11.7°
